OBJECT_NAME,OBJECT_ID,EPOCH,MEAN_MOTION,ECCENTRICITY,INCLINATION,RA_OF_ASC_NODE,ARG_OF_PERICENTER,MEAN_ANOMALY,EPHEMERIS_TYPE,CLASSIFICATION_TYPE,NORAD_CAT_ID,ELEMENT_SET_NO,REV_AT_EPOCH,BSTAR,MEAN_MOTION_DOT,MEAN_MOTION_DDOT EWS-G3 (GOES 14),2009-033A,2026-09-12T03:21:45.731232,1.00071615,.0002117,1.9086,81.8193,90.4866,314.3714,0,U,35491,999,746,0,-.154E-5,0 EWS-G2 (GOES 15),2010-008A,2026-09-12T03:56:31.586208,1.00271451,.0005151,1.5126,81.8555,80.3249,311.4374,0,U,36411,999,6051,0,.8E-7,0 GOES 16,2016-071A,2026-09-12T03:08:36.181248,1.00272447,.0001698,0.5504,84.5825,131.2749,77.7617,0,U,41866,999,3597,0,-.106E-5,0 GOES 17,2018-022A,2026-09-12T03:12:58.260960,1.00272399,.0000834,1.1553,84.2471,130.4475,95.2021,0,U,43226,999,3129,0,-.197E-5,0 GOES 18,2022-021A,2026-09-12T02:59:22.066080,1.00273283,.0000531,0.0403,314.5583,276.0642,28.3640,0,U,51850,999,746,0,.81E-6,0 GOES 19,2024-119A,2026-09-12T03:16:57.879264,1.00271337,.0000523,0.0035,20.7833,236.6149,67.7976,0,U,60133,999,783,0,-.263E-5,0